Location: Cormont
(50.5693°N, 1.7416°E)
Time: 13:46:54
(UTC+00:00)

STARLINK-77 - Pass Details

Date: 21 October 2019
Orbit: 548 x 551 km, 53.0° (Epoch: 13 November)

Event Time Altitude Azimuth Distance (km) Brightness Sun altitude
Rises 19:23:13 0° 286° (WNW) 2,720 8.6 -25.0°
Reaches altitude 10° 19:25:28 10° 288° (WNW) 1,826 7.3 -25.3°
Enters shadow 19:28:47 54° 306° (NW) 670 4.2 -25.8°
